#timestamp,LO_Frequency,Hit,StdDev 
1514959215.1,286046998.2,N
1514959216.0,286046998.2,N
1514959235.8,286046998.8,N
1514959255.6,286046998.6,N
1514959275.5,286047000.7,N
1514959295.3,286046998.4,N
1514959315.1,286046999.2,N
1514959335.9,286046999.6,N
1514959355.7,286046997.4,N
1514959375.7,286046996.8,N
1514959395.5,286046999.3,N
1514959415.3,286046998.8,N
1514959435.2,286046998.5,N
1514959455.0,286046998.6,N
1514959455.9,286046998.6,N
1514959475.7,286047000.3,N
1514959495.6,286046999.7,N
1514959515.4,286047002.4,N
1514959535.3,286047002.4,N
1514959555.1,286047002.3,N
1514959575.8,286047000.8,N
1514959595.7,286047002.8,N
1514959615.5,286046998.6,N
1514959635.4,286046999.3,N
1514959655.2,286046996.7,N
1514959675.0,286046998.9,N
1514959675.9,286046998.9,N
1514959695.8,286046997.6,N
1514959715.6,286046997.6,N
1514959735.5,286046999.0,N
1514959755.3,286047000.7,N
1514959775.1,286047001.1,N
1514959795.9,286046998.3,N
1514959815.7,286047000.6,N
1514959835.5,286047000.3,N
1514959855.4,286046998.4,N
1514959875.2,286047000.9,N
1514959895.1,286047001.2,N
1514959896.0,286047001.2,N
1514959915.8,286046998.4,N
1514959935.6,286047000.3,N
1514959955.5,286047000.5,N
1514959975.3,286047002.5,N
1514959995.1,286047004.2,N
1514960015.9,286047004.1,N
1514960035.7,286047004.4,N
1514960055.6,286047002.5,N
1514960075.4,286047002.1,N
1514960095.2,286047001.6,N
1514960115.1,286047001.9,N
1514960135.1,286047002.7,N
1514960136.0,286047002.7,N
1514960155.8,286047000.1,N
1514960175.7,286047004.1,N
1514960195.5,286047002.6,N
1514960215.3,286047000.1,N
1514960235.2,286047004.1,N
1514960255.0,286047002.0,N
1514960255.9,286047002.0,N
1514960275.8,286047002.4,N
1514960295.6,286047000.9,N
1514960315.4,286047002.7,N
1514960335.3,286047002.7,N
1514960355.1,286047002.4,N
1514960375.8,286047004.2,N
1514960395.7,286047005.9,Y
1514960415.5,286047000.7,P
1514960435.4,286047002.2,P
1514960455.2,286046998.5,N
1514960475.0,286046995.0,Y
1514960475.9,286046995.0,P
1514960495.8,286046993.7,N
1514960515.6,286046997.9,N
1514960535.5,286046996.6,N
1514960555.3,286046997.3,N
1514960575.1,286046997.4,N
1514960595.9,286046996.2,N
1514960615.7,286046994.1,N
1514960635.6,286046995.9,N
1514960655.4,286046997.0,N
1514960675.2,286046999.5,N
1514960695.1,286046996.7,N
1514960696.0,286046996.7,N
1514960715.8,286046999.0,N
1514960735.6,286046998.7,N
1514960755.5,286047000.9,N
1514960775.3,286046998.3,N
1514960795.2,286046999.1,N
1514960815.9,286046997.1,N
1514960835.7,286046999.0,N
1514960855.6,286046996.5,N
1514960875.4,286046999.3,N
1514960895.2,286046998.7,N
1514960915.1,286046998.1,N
1514960916.0,286046998.1,N
1514960935.8,286046998.2,N
1514960955.7,286046998.6,N
1514960975.5,286046998.2,N
1514960995.3,286047000.4,N
1514961015.2,286046998.6,N
1514961035.0,286046997.4,N
1514961035.9,286046997.4,N
1514961055.7,286046996.0,N
1514961075.6,286046993.5,Y
1514961095.4,286046997.2,P
1514961115.3,286046997.3,P
1514961135.1,286046997.2,P
1514961155.8,286046996.8,Y
1514961175.7,286047001.5,P
1514961195.5,286047003.4,N
1514961215.4,286047003.0,N
1514961235.2,286047003.1,N
1514961255.0,286047003.1,N
1514961255.9,286047003.1,N
1514961275.8,286047003.9,N
1514961295.6,286047001.4,N
1514961315.4,286047003.3,N
1514961335.3,286047005.5,Y
1514961355.1,286047000.2,P
1514961375.9,286047004.2,P
1514961395.7,286047003.4,N
1514961415.5,286047004.2,N
1514961435.4,286047001.8,N
1514961455.2,286047001.9,N
1514961475.1,286047004.3,Y
1514961476.0,286047004.3,P
1514961495.8,286047000.6,N
1514961515.6,286046998.1,N
1514961535.5,286046999.3,N
1514961555.3,286046996.9,N
1514961575.1,286046997.0,N
1514961595.9,286046996.9,N
1514961615.7,286046995.7,N
1514961635.6,286046997.5,N
1514961655.4,286046995.8,N
1514961675.2,286046995.3,N
1514961695.1,286046995.0,N
1514961696.0,286046995.0,N
1514961715.8,286046996.7,N
1514961735.7,286046999.6,N
1514961755.5,286046998.3,N
1514961775.3,286046997.6,N
1514961795.2,286046995.3,N
1514961815.0,286046997.1,N
1514961815.9,286046997.1,N
1514961835.8,286046997.7,N
1514961855.6,286046995.4,N
1514961875.4,286046995.1,N
1514961895.3,286046995.3,N
1514961915.1,286046997.3,N
1514961935.8,286046997.4,N
1514961955.7,286046998.7,N
1514961975.5,286046999.1,N
1514961995.4,286046999.6,N
1514962015.2,286046999.5,N
1514962035.0,286046998.8,N
1514962035.9,286046998.8,N
1514962055.8,286046999.6,N
1514962075.6,286046998.8,N
1514962095.4,286046999.1,N
1514962115.3,286046998.5,N
1514962135.1,286046998.8,N
1514962155.9,286046999.1,N
1514962175.7,286046997.1,N
1514962195.5,286046998.8,N
1514962215.4,286046996.9,N
1514962235.2,286046999.4,N
1514962255.1,286046997.2,N
1514962256.0,286046997.2,N
1514962275.8,286046996.9,N
1514962295.6,286046997.0,N
1514962315.5,286046998.6,N
1514962335.3,286047001.2,N
1514962355.1,286046998.1,N
1514962375.9,286047000.0,N
1514962395.7,286047000.4,N
1514962415.6,286046998.5,N
1514962435.4,286046996.7,N
1514962455.2,286046997.2,N
1514962475.1,286046997.2,N
1514962476.0,286046997.2,N
1514962495.8,286046996.8,N
1514962515.7,286046998.9,N
1514962535.5,286047002.1,N
1514962555.3,286047002.2,N
1514962575.2,286047003.8,N
1514962595.9,286047002.1,N
1514962615.7,286047000.3,N
1514962635.6,286046998.1,N
1514962655.4,286046999.5,N
1514962675.3,286046998.9,N
1514962695.1,286046999.0,N
1514962696.0,286046999.0,N
1514962715.8,286046999.2,N
1514962735.7,286047001.1,N
1514962755.5,286047001.2,N
1514962775.3,286047002.7,N
1514962795.2,286047003.6,N
